Find Starlink 37626

NORAD ID: 100419 Int'l Des: 2026-192 Owner: SPXS Country: US Constellation: starlink operational

当前视图

正在加载3D地球...

About Starlink 37626

Starlink 37626 (NORAD 100419) is a starlink constellation satellite launched Aug 21, 2026 by SPXS of US. with a mass of 575.00 kg.

即将过境

Passes for default location (London). Set your location on the main map for personalized predictions.

高度历史

Loading altitude history...

两行轨道根数

1 A0419U 26192R 26261.05105044 .00086451 00000-0 13448-2 0 9996
2 A0419 53.1589 317.4790 0000803 86.6599 273.4504 15.53210481 5530
Epoch: Sep 18, 2026 • Age: 62 hours

当前状态

高度 407.3 km
远地点 / 近地点 N/A
速度 7.67 km/s
星下点 -2.10°S, 79.36°E
发射日期 Aug 21, 2026
运行时间 29 days
类型 internet

技术详情

分类 Payload
质量 575.00 kg
干质量 530.00 kg
长度 0.30 m
跨度 29.00 m
形状 ? Box + pan
制造商 SPXS
平台类型 Starlink V2MO
阶段状态 In Orbit
所有者/国家 SPXS/US

Most Searched